This is the latest recevied weather packets stored in our database for station/object KI4BIY. If no packets are shown the sender has not sent any weather packets the latest 10 day(s).
| Time | Temp. | Humidity | Pressure | Rain* | Wind** | Luminosity | Snow |
|---|---|---|---|---|---|---|---|
| 1777578851 | 18.33° C | 47% | 1015.6 hPa | 0 mm | - | 298 W/m² | - |
| 1777578547 | 18.33° C | 52% | 1015.6 hPa | 0 mm | - | 367 W/m² | - |
| 1777578242 | 18.33° C | 52% | 1015.7 hPa | 0 mm | - | 315 W/m² | - |
| 1777577937 | 17.78° C | 54% | 1015.8 hPa | 0 mm | - | 313 W/m² | - |
| 1777577633 | 17.78° C | 48% | 1015.9 hPa | 0 mm | - | 293 W/m² | - |
| 1777577330 | 17.78° C | 49% | 1015.7 hPa | 0 mm | - | 259 W/m² | - |
| 1777577026 | 17.78° C | 51% | 1015.7 hPa | 0 mm | - | 278 W/m² | - |
| 1777576724 | 17.78° C | 49% | 1015.9 hPa | 0 mm | - | 276 W/m² | - |
| 1777576422 | 17.78° C | 49% | 1015.7 hPa | 0 mm | - | 286 W/m² | - |
| 1777576120 | 18.33° C | 54% | 1015.8 hPa | 0 mm | - | 277 W/m² | - |
| 1777575814 | 18.89° C | 56% | 1016.1 hPa | 0 mm | - | 283 W/m² | - |
| 1777575512 | 17.78° C | 50% | 1016.2 hPa | 0 mm | - | 286 W/m² | - |
| 1777575207 | 17.78° C | 49% | 1015.9 hPa | 0 mm | - | 299 W/m² | - |
| 1777574903 | 18.33° C | 51% | 1016.1 hPa | 0 mm | - | 296 W/m² | - |
| 1777574600 | 18.33° C | 50% | 1016 hPa | 0 mm | - | 273 W/m² | - |
| 1777574297 | 17.78° C | 46% | 1016 hPa | 0 mm | - | 350 W/m² | - |
| 1777573992 | 18.33° C | 51% | 1016.4 hPa | 0 mm | - | 290 W/m² | - |
| 1777573687 | 18.33° C | 51% | 1016.7 hPa | 0 mm | - | 364 W/m² | - |
| 1777573384 | 17.78° C | 51% | 1016.5 hPa | 0 mm | - | 274 W/m² | - |
| 1777573079 | 18.33° C | 48% | 1016.6 hPa | 0 mm | - | 321 W/m² | - |
| 1777572777 | 18.33° C | 52% | 1016.3 hPa | 0 mm | - | 379 W/m² | - |
| 1777572476 | 18.33° C | 53% | 1016.4 hPa | 0 mm | - | 348 W/m² | - |
| 1777572173 | 18.33° C | 50% | 1016.5 hPa | 0 mm | - | 344 W/m² | - |
| 1777571868 | 18.33° C | 52% | 1016.5 hPa | 0 mm | - | 459 W/m² | - |
| 1777571564 | 18.33° C | 50% | 1016.6 hPa | 0 mm | - | 442 W/m² | - |
* Rain latest hour (hover to see other rain measurements)
** Current wind speed in m/s (hover to see current wind gust speed)